Location: La Pernelle
(49.6188°N, 1.2999°W)
Time: 03:05:58
(UTC+00:00)

NOSS 3-2 (A) - Pass Details

Date: 17 October 2021
Orbit: 771 x 1437 km, 63.4° (Epoch: 21 November)

Event Time Altitude Azimuth Distance (km) Brightness Sun altitude
Rises 17:46:34 0° 272° (W) 3,473 8.7 -6.6°
Reaches altitude 10° 17:49:15 10° 283° (WNW) 2,619 7.1 -7.0°
Maximum altitude 17:54:35 30° 344° (NNW) 1,749 5.0 -7.9°
Drops below altitude 10° 18:00:42 10° 43° (NE) 3,028 5.6 -8.9°
Enters shadow 18:02:50 - 51° (NE) 3,707 6.0 -9.2°
